AirNav   Pilot Hours Calculator
 
 638 users online  

M95 Richard Arthur Field Airport
Fayette, Alabama, USA

GOING TO FAYETTE?


FAA INFORMATION EFFECTIVE 16 JUNE 2022

Location

FAA Identifier: M95
Lat/Long: 33-42-32.7810N 087-48-54.7510W
33-42.546350N 087-48.912517W
33.7091058,-87.8152086
(estimated)
Elevation: 357.4 ft. / 108.9 m (surveyed)
Variation: 03W (2020)
From city: 3 miles NE of FAYETTE, AL
Time zone: UTC -5 (UTC -6 during Standard Time)
Zip code: 35555

Airport Operations

Airport use: Open to the public
Activation date: 10/1946
Control tower: no
ARTCC: MEMPHIS CENTER
FSS: ANNISTON FLIGHT SERVICE STATION
NOTAMs facility: ANB (NOTAM-D service available)
Attendance: MON-FRI 0900-1300
Wind indicator: lighted
Segmented circle: yes
Lights: ACTVT PAPI RWY 01 & 19; MIRL RWY 01/19; TWY LGTS - CTAF.
Beacon: white-green (lighted land airport)
Operates sunset to sunrise.

Airport Communications

CTAF/UNICOM: 122.8
COLUMBUS APPROACH: 126.075
COLUMBUS DEPARTURE: 126.075
  • APCH/DEP SVC PRVDD BY MEMPHIS ARTCC ON FREQS 127.1/269.4 (COLUMBUS RCAG) WHEN COLUMBUS APCH CTL CLSD.

Airport Services

Fuel available: 100LL JET-A+
Parking: tiedowns
Bottled oxygen: NONE
Bulk oxygen: NONE

Runway Information

Runway 1/19

Dimensions: 5009 x 80 ft. / 1527 x 24 m
Surface: asphalt/grooved, in good condition
Weight bearing capacity: 
PCN 10 /F/C/X/T
Single wheel: 15.0
Runway edge lights: medium intensity
RUNWAY 1  RUNWAY 19
Latitude: 33-42.133813N33-42.958893N
Longitude: 087-48.934883W087-48.890157W
Elevation: 330.9 ft.357.4 ft.
Traffic pattern: leftleft
Runway heading: 006 magnetic, 003 true186 magnetic, 183 true
Markings: nonprecision, in good conditionnonprecision, in good condition
Visual slope indicator: 2-light PAPI on left (3.00 degrees glide path)2-light PAPI on left (3.00 degrees glide path)
Touchdown point: yes, no lightsyes, no lights
Obstructions: 33 ft. trees, 1217 ft. from runway, 187 ft. right of centerline, 30:1 slope to clear85 ft. trees, 1301 ft. from runway, 191 ft. left of centerline, 12:1 slope to clear

Airport Ownership and Management from official FAA records

Ownership: Publicly-owned
Owner: CITY OF FAYETTE
203 TEMPLE AVE NORTH
FAYETTE, AL 35555
Phone 205-932-5367
Manager: KIP MADISON
100 21ST STREET NORTH EAST
FAYETTE, AL 35555
Phone 205-932-3819

Airport Operational Statistics

Aircraft based on the field: 10
Single engine airplanes: 9
Helicopters: 1
    
Aircraft operations: avg 42/day *
85% transient general aviation
15% local general aviation
* for 12-month period ending 31 August 2020

Additional Remarks

TWY LGTS FOR TWY TURNOFF ONLY.
DEER ON & INVOF ARPT.
FOR CD CTC COLUMBUS APCH AT 662-434-3044.

Instrument Procedures

NOTE: All procedures below are presented as PDF files. If you need a reader for these files, you should download the free Adobe Reader.

NOT FOR NAVIGATION. Please procure official charts for flight.
FAA instrument procedures published for use from 16 June 2022 at 0901Z to 14 July 2022 at 0900z.

 
IAPs - Instrument Approach Procedures
RNAV (GPS) RWY 01   download (222KB)
RNAV (GPS) RWY 19   download (183KB)
NOTE: Special Take-Off Minimums/Departure Procedures apply   download (481KB)

Other nearby airports with instrument procedures:

M55 - Lamar County Airport (17 nm NW)
3M8 - North Pickens Airport (22 nm SW)
KHAB - Marion County-Rankin Fite Airport (26 nm N)
KJFX - Walker County Airport-Bevill Field (28 nm NE)
KTCL - Tuscaloosa National Airport (31 nm S)
 
Loc | Ops | Rwys | IFR | FBO | Links
Com | Nav | Svcs | Stats | Notes
Area around M95 (Richard Arthur Field Airport)
 
Road maps at: MapQuest Bing Google
 
Aerial photo
WARNING: Photo may not be current or correct
Aerial photo of M95 (Richard Arthur Field Airport)
Taken late October 2007

Do you have a better or more recent aerial photo of Richard Arthur Field Airport that you would like to share? If so, please send us your photo.

 
Sectional chart

 
Airport distance calculator
Flying to Richard Arthur Field Airport? Find the distance to fly.

From to M95

Sunrise and sunset
Times for 28-Jun-2022
 Local
(UTC-5)
 Zulu
(UTC)
Morning civil twilight05:1510:15
Sunrise05:4410:44
Sunset20:0501:05
Evening civil twilight20:3401:34

Current date and time
Zulu (UTC)  28-Jun-2022 06:16:14
Local (UTC-5)  28-Jun-2022 01:16:14
 
METAR
KJFX 
28nm NE 
280555Z AUTO 00000KT 10SM BKN060 24/18 A3010 RMK AO2 PWINO
KTCL 
31nm S 
280553Z AUTO 02003KT 10SM FEW055 24/22 A3008 RMK AO2 SLP183 60005 T02390217 10261 20233 403390228 58002
KCBM 
32nm W 
280556Z AUTO 35005KT 10SM OVC050 24/16 A3007 RMK AO2 SLP183 T02360156 10299 20233 403130228 50002 TSNO $
KM40 
35nm W 
280555Z AUTO 36005KT 10SM OVC055 23/18 A3012 RMK AO2
K1M4 
36nm N 
280556Z AUTO 01003KT 10SM CLR 21/14 A3016 RMK AO2 SLP195 6//// T02110139 10272 20206 50001 PNO $
KGTR 
41nm W 
280556Z AUTO 36005KT 10SM OVC050 23/17 A3011 RMK AO2 SLP201 T02330167 10294 20233 403220228 50003
TAF
KTCL 
31nm S 
271720Z 2718/2818 35008KT P6SM SCT060 FM272100 35005KT P6SM VCTS BKN060CB FM280000 02004KT P6SM BKN150
KCBM 
32nm W 
280100Z 2801/2907 01006KT 9999 FEW045 BKN180 QNH3004INS BECMG 2811/2812 01006KT 9999 BKN050 QNH3009INS BECMG 2817/2818 02006KT 9999 SCT100 QNH3002INS TX31/2821Z TN20/2811Z
NOTAMs
Click for the latest NOTAMs
NOTAMs are issued by the DoD/FAA and will open in a separate window not controlled by AirNav.

 

 
 

FBO, Fuel Providers, and Aircraft Ground Support

  
 Business Name 
 
 Contact 
 
 Services / Description 
 
Fuel Prices
 
Comments
  
City of Fayette (FBO) 205-932-3819
no information available

If you are affiliated with City of Fayette (FBO) and would like to show here your services, contact info, web link, logo, and more, click here
100LL Jet A
AS --- $4.83 
SS $5.54 --- 
 Updated 25-Jun-2022
 
   1 read write
AS=Assisted/Self Service
SS=Self service
Update Fuel Prices
 

Would you like to see your business listed on this page?

 If your business provides an interesting product or service to pilots, flight crews, aircraft, or users of the Richard Arthur Field Airport, you should consider listing it here.  To start the listing process, click on the button below
 
Add a business
 

Other Pages about Richard Arthur Field Airport

Update a link
 
Copyright © AirNav, LLC. All rights reserved. Privacy Policy  Contact